Torna al catalogo

LEMUR 2 KRISH

AttivoScienzaSSO
NORAD 64561·PAYLOAD·🇺🇸 United States

Lanciato Jun 23, 2025 da Vandenberg Space Force Base

Loading…

Prossimi Passaggi (prossime 24 ore)

TLE

AggiornatoSource: Space-Track

Epoca: Sep 14, 2026, 01:35 UTC

1 64561U 25135AK  26257.06632154  .00004550  00000-0  40144-3 0  9997
2 64561  97.7819  11.4057 0001700 103.2125 256.9286 14.96898058 67217

Traccia LEMUR 2 KRISH in tempo reale con AllMySat

Download on the App Store